Location: Fours
(44.3167°N, 6.7000°E)
Time: 10:08:23
(UTC+00:00)

Cosmos 2341 Rocket - Pass Details

Date: 30 November 2020
Orbit: 969 x 1004 km, 82.9° (Epoch: 25 January)

Event Time Altitude Azimuth Distance (km) Brightness Sun altitude
Rises 16:46:53 0° 351° (N) 3,699 6.9 -9.1°
Reaches altitude 10° 16:49:24 10° 352° (N) 2,752 6.2 -9.5°
Maximum altitude 16:55:45 89° 81° (E) 998 4.1 -10.5°
Drops below altitude 10° 17:02:06 10° 174° (S) 2,756 6.5 -11.6°
Sets 17:04:37 0° 174° (S) 3,706 7.2 -12.0°
